Regional Weather Roundup
Issued by NWS Jackson, KY

Home | Current Version | Previous Version | Text Only | Print | Product List | Glossary Off
Versions: 1 2 3 4 5 6 7 8 9 10 11 12 13 14 15 16 17 18 19 20 21 22 23 24 25 26 27 28

000
ASUS43 KJKL 170110
RWRJKL

EAST KENTUCKY HOURLY WEATHER ROUNDUP
NATIONAL WEATHER SERVICE JACKSON KY
900 PM EDT MON OCT 16 2017

NOTE: "FAIR" INDICATES FEW OR NO CLOUDS BELOW 12,000 FEET WITH
NO SIGNIFICANT WEATHER AND/OR OBSTRUCTIONS TO VISIBILITY.

* THESE REPORTS ARE NOT UNDER NWS QUALITY CONTROL AND MAY NOT
  REPORT WEATHER SUCH AS PRECIPITATION AND FOG.

KYZ079-080-083-085-087-088-110-112-115-119-120-170200
...EASTERN KENTUCKY...

CITY           SKY/WX    TMP DP  RH WIND       PRES   REMARKS
JACKSON        CLEAR     51  39  63 CALM      30.30R
LONDON         CLEAR     49  42  77 N3        30.30R
SOMERSET*      CLEAR     46  41  81 CALM      30.32R
MONTICELLO*    CLEAR     45  43  93 N10       30.32R
WILLIAMSBURG*  CLEAR     46  45  93 CALM      30.30R
MIDDLESBORO*   PTCLDY    48  43  84 CALM      30.30R
HARLAN APT*    CLEAR     46  39  76 CALM      30.29R
PIKE CO APT*     N/A     51  38  62 N6        30.30R
BIG SANDY APT* CLEAR     50  40  67 CALM      30.30R
MOREHEAD APT*  CLEAR     50  41  71 CALM      30.32R
$$

KYZ035-036-041-042-044-050-067-078-099-170200
...CENTRAL KENTUCKY...

CITY           SKY/WX    TMP DP  RH WIND       PRES   REMARKS
MT STERLING*   CLEAR     45  43  93 CALM      30.32R
FLEMING/MASON* CLEAR     52  38  58 N3        30.32R
DANVILLE*      CLEAR     46  43  87 CALM      30.32R
LEXINGTON      CLEAR     51  41  68 CALM      30.31R
FRANKFORT      CLEAR     47  40  76 CALM      30.30R
LOUISVILLE     CLEAR     57  39  51 N3        30.30S
LEBANON*         N/A     50  41  71 CALM      30.31S HAZE
GLASGOW*       CLEAR     47  43  86 CALM      30.31R
BOWLING GREEN  CLEAR     52  44  74 CALM      30.31R
$$

KYZ091>093-OHZ055-061-077-WVZ005-015-034-035-042-170200
...SOUTHERN OHIO/WEST VIRGINIA...

CITY           SKY/WX    TMP DP  RH WIND       PRES   REMARKS
COVINGTON      CLEAR     47  41  80 CALM      30.30R
COLUMBUS       CLEAR     50  40  68 CALM      30.29R
DAYTON         CLEAR     48  38  68 CALM      30.30S
WILMINGTON     CLEAR     45  41  86 CALM      30.30R
HUNTINGTON     CLEAR     50  41  71 CALM      30.29R
CHARLESTON     CLEAR     50  39  66 CALM      30.29R
PINEVILLE*     CLEAR     43  40  89 MISG      30.33R
BECKLEY        CLEAR     45  36  70 CALM      30.27R
BLUEFIELD      CLEAR     45  34  65 CALM      30.28R
LOGAN CO APT*    N/A     50  37  62 CALM      30.28R
$$

VAZ002-007-008-TNZ017-027-036-066-071-170200
...SOUTHWEST VIRGINIA/EAST TENNESSEE...

CITY           SKY/WX    TMP DP  RH WIND       PRES   REMARKS
WISE*          CLEAR     46  37  71 N5        30.29S
JONESVILLE*      N/A     48  43  81 CALM      30.31R
ABINGDON*      CLEAR     49  39  70 CALM      30.27S
BRISTOL        PTCLDY    48  41  76 N3        30.27R
MORRISTOWN*    CLEAR     54  39  58 CALM      30.27R
SEVIERVILLE*   CLEAR     50  45  81 CALM      30.26R
KNOXVILLE      CLEAR     54  44  69 N6        30.25R
LAFOLLETTE*    CLEAR     48  43  81 CALM      30.32R
OAK RIDGE      CLEAR     51  45  79 CALM      30.28R
CROSSVILLE     CLEAR     49  39  68 N6        30.29R
NASHVILLE      CLEAR     55  42  61 N9        30.30R
$$

...KEY TO REMARKS...
VSB - VISIBILITY IN MILES
WCI - WIND CHILL INDEX
HX  - HEAT INDEX

$$




USA.gov is the U.S. government's official web portal to all federal, state and local government web resources and services.